﻿測定場所 (Monitoring sites),日付 (Measurement date),時間 (Measurement time),線量率 最大値 (max) μGy/h,線量率 最小値 (min) μGy/h,線量率 平均値 (average) μGy/h,
江戸川 (Edogawa),2013-04-21,23:01～24:00,0.0943,0.0835,0.0887,
江戸川 (Edogawa),2013-04-21,22:01～23:00,0.0925,0.0818,0.0882,
江戸川 (Edogawa),2013-04-21,21:01～22:00,0.0948,0.0835,0.0887,
江戸川 (Edogawa),2013-04-21,20:01～21:00,0.0944,0.0839,0.0891,
江戸川 (Edogawa),2013-04-21,19:01～20:00,0.0981,0.0825,0.0893,
江戸川 (Edogawa),2013-04-21,18:01～19:00,0.0950,0.0834,0.0894,
江戸川 (Edogawa),2013-04-21,17:01～18:00,0.0968,0.0825,0.0895,
江戸川 (Edogawa),2013-04-21,16:01～17:00,0.0952,0.0822,0.0888,
江戸川 (Edogawa),2013-04-21,15:01～16:00,0.0957,0.0832,0.0898,
江戸川 (Edogawa),2013-04-21,14:01～15:00,0.0966,0.0839,0.0911,
江戸川 (Edogawa),2013-04-21,13:01～14:00,0.101,0.0871,0.0941,
江戸川 (Edogawa),2013-04-21,12:01～13:00,0.102,0.0907,0.0969,
江戸川 (Edogawa),2013-04-21,11:01～12:00,0.108,0.0913,0.0999,
江戸川 (Edogawa),2013-04-21,10:01～11:00,0.108,0.0949,0.101,
江戸川 (Edogawa),2013-04-21,09:01～10:00,0.109,0.0973,0.103,
江戸川 (Edogawa),2013-04-21,08:01～09:00,0.112,0.0973,0.104,
江戸川 (Edogawa),2013-04-21,07:01～08:00,0.107,0.0967,0.103,
江戸川 (Edogawa),2013-04-21,06:01～07:00,0.107,0.0956,0.102,
江戸川 (Edogawa),2013-04-21,05:01～06:00,0.104,0.0919,0.0985,
江戸川 (Edogawa),2013-04-21,04:01～05:00,0.101,0.0875,0.0938,
江戸川 (Edogawa),2013-04-21,03:01～04:00,0.0978,0.0852,0.0915,
江戸川 (Edogawa),2013-04-21,02:01～03:00,0.101,0.0854,0.0935,
江戸川 (Edogawa),2013-04-21,01:01～02:00,0.102,0.0907,0.0965,
江戸川 (Edogawa),2013-04-21,00:01～01:00,0.100,0.0880,0.0958,
江戸川 (Edogawa),2013-04-20,23:01～24:00,0.101,0.0896,0.0954,
江戸川 (Edogawa),2013-04-20,22:01～23:00,0.104,0.0908,0.0967,
江戸川 (Edogawa),2013-04-20,21:01～22:00,0.100,0.0919,0.0964,
江戸川 (Edogawa),2013-04-20,20:01～21:00,0.104,0.0920,0.0969,
江戸川 (Edogawa),2013-04-20,19:01～20:00,0.102,0.0915,0.0970,
江戸川 (Edogawa),2013-04-20,18:01～19:00,0.109,0.0957,0.101,
江戸川 (Edogawa),2013-04-20,17:01～18:00,0.103,0.0921,0.0981,
江戸川 (Edogawa),2013-04-20,16:01～17:00,0.101,0.0910,0.0965,
江戸川 (Edogawa),2013-04-20,15:01～16:00,0.101,0.0871,0.0959,
江戸川 (Edogawa),2013-04-20,14:01～15:00,0.0992,0.0888,0.0936,
江戸川 (Edogawa),2013-04-20,13:01～14:00,0.0993,0.0877,0.0943,
江戸川 (Edogawa),2013-04-20,12:01～13:00,0.100,0.0871,0.0942,
江戸川 (Edogawa),2013-04-20,11:01～12:00,0.100,0.0864,0.0935,
江戸川 (Edogawa),2013-04-20,10:01～11:00,0.0997,0.0891,0.0942,
江戸川 (Edogawa),2013-04-20,09:01～10:00,0.100,0.0892,0.0942,
江戸川 (Edogawa),2013-04-20,08:01～09:00,0.101,0.0868,0.0940,
江戸川 (Edogawa),2013-04-20,07:01～08:00,0.100,0.0861,0.0936,
江戸川 (Edogawa),2013-04-20,06:01～07:00,0.0993,0.0888,0.0935,
江戸川 (Edogawa),2013-04-20,05:01～06:00,0.0977,0.0858,0.0935,
江戸川 (Edogawa),2013-04-20,04:01～05:00,0.103,0.0883,0.0943,
江戸川 (Edogawa),2013-04-20,03:01～04:00,0.0997,0.0883,0.0934,
江戸川 (Edogawa),2013-04-20,02:01～03:00,0.0995,0.0877,0.0938,
江戸川 (Edogawa),2013-04-20,01:01～02:00,0.100,0.0879,0.0936,
江戸川 (Edogawa),2013-04-20,00:01～01:00,0.0978,0.0882,0.0931,
江戸川 (Edogawa),2013-04-19,23:01～24:00,0.0996,0.0844,0.0935,
江戸川 (Edogawa),2013-04-19,22:01～23:00,0.100,0.0890,0.0944,
江戸川 (Edogawa),2013-04-19,21:01～22:00,0.100,0.0900,0.0939,
江戸川 (Edogawa),2013-04-19,20:01～21:00,0.0993,0.0897,0.0945,
江戸川 (Edogawa),2013-04-19,19:01～20:00,0.0988,0.0902,0.0940,
江戸川 (Edogawa),2013-04-19,18:01～19:00,0.101,0.0879,0.0944,
江戸川 (Edogawa),2013-04-19,17:01～18:00,0.0997,0.0876,0.0938,
江戸川 (Edogawa),2013-04-19,16:01～17:00,0.0991,0.0856,0.0938,
江戸川 (Edogawa),2013-04-19,15:01～16:00,0.0997,0.0884,0.0939,
江戸川 (Edogawa),2013-04-19,14:01～15:00,0.101,0.0904,0.0944,
江戸川 (Edogawa),2013-04-19,13:01～14:00,0.101,0.0895,0.0948,
江戸川 (Edogawa),2013-04-19,12:01～13:00,0.101,0.0901,0.0955,
江戸川 (Edogawa),2013-04-19,11:01～12:00,0.102,0.0890,0.0955,
江戸川 (Edogawa),2013-04-19,10:01～11:00,0.102,0.0866,0.0942,
江戸川 (Edogawa),2013-04-19,09:01～10:00,0.0996,0.0869,0.0931,
江戸川 (Edogawa),2013-04-19,08:01～09:00,0.101,0.0885,0.0940,
江戸川 (Edogawa),2013-04-19,07:01～08:00,0.0989,0.0893,0.0939,
江戸川 (Edogawa),2013-04-19,06:01～07:00,0.100,0.0876,0.0943,
江戸川 (Edogawa),2013-04-19,05:01～06:00,0.101,0.0902,0.0956,
江戸川 (Edogawa),2013-04-19,04:01～05:00,0.102,0.0898,0.0954,
江戸川 (Edogawa),2013-04-19,03:01～04:00,0.101,0.0893,0.0956,
江戸川 (Edogawa),2013-04-19,02:01～03:00,0.102,0.0897,0.0947,
江戸川 (Edogawa),2013-04-19,01:01～02:00,0.100,0.0852,0.0944,
江戸川 (Edogawa),2013-04-19,00:01～01:00,0.100,0.0885,0.0942,
江戸川 (Edogawa),2013-04-18,23:01～24:00,0.0997,0.0876,0.0939,
江戸川 (Edogawa),2013-04-18,22:01～23:00,0.101,0.0895,0.0948,
江戸川 (Edogawa),2013-04-18,21:01～22:00,0.100,0.0863,0.0941,
江戸川 (Edogawa),2013-04-18,20:01～21:00,0.0997,0.0894,0.0939,
江戸川 (Edogawa),2013-04-18,19:01～20:00,0.100,0.0876,0.0942,
江戸川 (Edogawa),2013-04-18,18:01～19:00,0.0994,0.0880,0.0936,
江戸川 (Edogawa),2013-04-18,17:01～18:00,0.102,0.0873,0.0944,
江戸川 (Edogawa),2013-04-18,16:01～17:00,0.100,0.0877,0.0940,
江戸川 (Edogawa),2013-04-18,15:01～16:00,0.102,0.0878,0.0944,
江戸川 (Edogawa),2013-04-18,14:01～15:00,0.100,0.0887,0.0946,
江戸川 (Edogawa),2013-04-18,13:01～14:00,0.101,0.0900,0.0948,
江戸川 (Edogawa),2013-04-18,12:01～13:00,0.103,0.0859,0.0948,
江戸川 (Edogawa),2013-04-18,11:01～12:00,0.102,0.0882,0.0945,
江戸川 (Edogawa),2013-04-18,10:01～11:00,0.101,0.0881,0.0950,
江戸川 (Edogawa),2013-04-18,09:01～10:00,0.101,0.0885,0.0942,
江戸川 (Edogawa),2013-04-18,08:01～09:00,0.100,0.0845,0.0943,
江戸川 (Edogawa),2013-04-18,07:01～08:00,0.100,0.0898,0.0946,
江戸川 (Edogawa),2013-04-18,06:01～07:00,0.0988,0.0886,0.0938,
江戸川 (Edogawa),2013-04-18,05:01～06:00,0.0983,0.0871,0.0933,
江戸川 (Edogawa),2013-04-18,04:01～05:00,0.0997,0.0885,0.0933,
江戸川 (Edogawa),2013-04-18,03:01～04:00,0.0991,0.0870,0.0928,
江戸川 (Edogawa),2013-04-18,02:01～03:00,0.0999,0.0845,0.0939,
江戸川 (Edogawa),2013-04-18,01:01～02:00,0.100,0.0895,0.0938,
江戸川 (Edogawa),2013-04-18,00:01～01:00,0.100,0.0903,0.0943,
江戸川 (Edogawa),2013-04-17,23:01～24:00,0.0976,0.0890,0.0934,
江戸川 (Edogawa),2013-04-17,22:01～23:00,0.0988,0.0900,0.0940,
江戸川 (Edogawa),2013-04-17,21:01～22:00,0.0992,0.0877,0.0938,
江戸川 (Edogawa),2013-04-17,20:01～21:00,0.102,0.0853,0.0938,
江戸川 (Edogawa),2013-04-17,19:01～20:00,0.0995,0.0883,0.0939,
江戸川 (Edogawa),2013-04-17,18:01～19:00,0.0985,0.0892,0.0943,
江戸川 (Edogawa),2013-04-17,17:01～18:00,0.0990,0.0875,0.0944,
江戸川 (Edogawa),2013-04-17,16:01～17:00,0.0988,0.0889,0.0941,
江戸川 (Edogawa),2013-04-17,15:01～16:00,0.0989,0.0862,0.0943,
江戸川 (Edogawa),2013-04-17,14:01～15:00,0.100,0.0888,0.0940,
江戸川 (Edogawa),2013-04-17,13:01～14:00,0.100,0.0886,0.0945,
江戸川 (Edogawa),2013-04-17,12:01～13:00,0.0992,0.0894,0.0941,
江戸川 (Edogawa),2013-04-17,11:01～12:00,0.100,0.0894,0.0945,
江戸川 (Edogawa),2013-04-17,10:01～11:00,0.101,0.0878,0.0948,
江戸川 (Edogawa),2013-04-17,09:01～10:00,0.101,0.0879,0.0944,
江戸川 (Edogawa),2013-04-17,08:01～09:00,0.0984,0.0883,0.0942,
江戸川 (Edogawa),2013-04-17,07:01～08:00,0.104,0.0900,0.0945,
江戸川 (Edogawa),2013-04-17,06:01～07:00,0.0998,0.0884,0.0948,
江戸川 (Edogawa),2013-04-17,05:01～06:00,0.101,0.0875,0.0945,
江戸川 (Edogawa),2013-04-17,04:01～05:00,0.102,0.0896,0.0945,
江戸川 (Edogawa),2013-04-17,03:01～04:00,0.0988,0.0866,0.0935,
江戸川 (Edogawa),2013-04-17,02:01～03:00,0.102,0.0866,0.0941,
江戸川 (Edogawa),2013-04-17,01:01～02:00,0.102,0.0877,0.0942,
江戸川 (Edogawa),2013-04-17,00:01～01:00,0.100,0.0898,0.0941,
江戸川 (Edogawa),2013-04-16,23:01～24:00,0.102,0.0886,0.0945,
江戸川 (Edogawa),2013-04-16,22:01～23:00,0.100,0.0889,0.0947,
江戸川 (Edogawa),2013-04-16,21:01～22:00,0.0994,0.0887,0.0948,
江戸川 (Edogawa),2013-04-16,20:01～21:00,0.102,0.0886,0.0941,
江戸川 (Edogawa),2013-04-16,19:01～20:00,0.100,0.0891,0.0943,
江戸川 (Edogawa),2013-04-16,18:01～19:00,0.0994,0.0891,0.0944,
江戸川 (Edogawa),2013-04-16,17:01～18:00,0.0995,0.0870,0.0944,
江戸川 (Edogawa),2013-04-16,16:01～17:00,0.0984,0.0898,0.0946,
江戸川 (Edogawa),2013-04-16,15:01～16:00,0.103,0.0900,0.0951,
江戸川 (Edogawa),2013-04-16,14:01～15:00,0.100,0.0876,0.0950,
江戸川 (Edogawa),2013-04-16,13:01～14:00,0.100,0.0888,0.0941,
江戸川 (Edogawa),2013-04-16,12:01～13:00,0.102,0.0888,0.0949,
江戸川 (Edogawa),2013-04-16,11:01～12:00,0.101,0.0867,0.0943,
江戸川 (Edogawa),2013-04-16,10:01～11:00,0.0991,0.0866,0.0944,
江戸川 (Edogawa),2013-04-16,09:01～10:00,0.101,0.0882,0.0951,
江戸川 (Edogawa),2013-04-16,08:01～09:00,0.100,0.0882,0.0946,
江戸川 (Edogawa),2013-04-16,07:01～08:00,0.101,0.0887,0.0939,
江戸川 (Edogawa),2013-04-16,06:01～07:00,0.0992,0.0870,0.0932,
江戸川 (Edogawa),2013-04-16,05:01～06:00,0.0989,0.0850,0.0934,
江戸川 (Edogawa),2013-04-16,04:01～05:00,0.0986,0.0832,0.0927,
江戸川 (Edogawa),2013-04-16,03:01～04:00,0.100,0.0878,0.0933,
江戸川 (Edogawa),2013-04-16,02:01～03:00,0.0983,0.0865,0.0926,
江戸川 (Edogawa),2013-04-16,01:01～02:00,0.100,0.0881,0.0934,
江戸川 (Edogawa),2013-04-16,00:01～01:00,0.100,0.0867,0.0933,
江戸川 (Edogawa),2013-04-15,23:01～24:00,0.100,0.0873,0.0938,
江戸川 (Edogawa),2013-04-15,22:01～23:00,0.102,0.0871,0.0933,
江戸川 (Edogawa),2013-04-15,21:01～22:00,0.0978,0.0869,0.0927,
江戸川 (Edogawa),2013-04-15,20:01～21:00,0.0985,0.0874,0.0930,
江戸川 (Edogawa),2013-04-15,19:01～20:00,0.100,0.0892,0.0935,
江戸川 (Edogawa),2013-04-15,18:01～19:00,0.100,0.0849,0.0938,
江戸川 (Edogawa),2013-04-15,17:01～18:00,0.0997,0.0891,0.0940,
江戸川 (Edogawa),2013-04-15,16:01～17:00,0.100,0.0891,0.0945,
江戸川 (Edogawa),2013-04-15,15:01～16:00,0.100,0.0891,0.0953,
江戸川 (Edogawa),2013-04-15,14:01～15:00,0.100,0.0892,0.0944,
江戸川 (Edogawa),2013-04-15,13:01～14:00,0.101,0.0904,0.0950,
江戸川 (Edogawa),2013-04-15,12:01～13:00,0.100,0.0880,0.0946,
江戸川 (Edogawa),2013-04-15,11:01～12:00,0.0999,0.0893,0.0944,
江戸川 (Edogawa),2013-04-15,10:01～11:00,0.0988,0.0885,0.0945,
江戸川 (Edogawa),2013-04-15,09:01～10:00,0.100,0.0891,0.0947,
江戸川 (Edogawa),2013-04-15,08:01～09:00,0.0998,0.0894,0.0946,
江戸川 (Edogawa),2013-04-15,07:01～08:00,0.100,0.0869,0.0941,
江戸川 (Edogawa),2013-04-15,06:01～07:00,0.100,0.0882,0.0942,
江戸川 (Edogawa),2013-04-15,05:01～06:00,0.101,0.0881,0.0939,
江戸川 (Edogawa),2013-04-15,04:01～05:00,0.100,0.0866,0.0931,
江戸川 (Edogawa),2013-04-15,03:01～04:00,0.100,0.0871,0.0936,
江戸川 (Edogawa),2013-04-15,02:01～03:00,0.100,0.0881,0.0934,
江戸川 (Edogawa),2013-04-15,01:01～02:00,0.101,0.0889,0.0932,
江戸川 (Edogawa),2013-04-15,00:01～01:00,0.0989,0.0849,0.0925,
